Weather History for Mosby, MO

Change the Weather History Date:

Friday, January 11, 2013

  Actual Average (KMKC) Record (KMKC)
Temperature  
Mean Temperature 54 °F -  
Max Temperature 60 °F 36 °F 61 °F (2007)
Min Temperature 48 °F 21 °F -2 °F (1997)
Degree Days  
Heating Degree Days 11    
Growing Degree Days 4 (Base 50)    
Moisture  
Dew Point 47 °F    
Average Humidity 78    
Maximum Humidity 100    
Minimum Humidity 55    
Precipitation  
Precipitation 0.00 in - - ()
Sea Level Pressure  
Sea Level Pressure 29.66 in    
Wind  
Wind Speed 8 mph (South)    
Max Wind Speed 18 mph    
Max Gust Speed 29 mph    
Visibility 8 miles    
Events Rain    
Averages and records for this station are not official NWS values.
T = Trace of Precipitation, MM = Missing Value Source: NWS Daily Summary

Daily Weather History Graph

Daily Weather History Graph

Search for Another Location

Airport:

Trip Planner

Search our weather history database for the weather conditions in past years. The results will help you decide how hot, cold, wet, or windy it might be!

Date:

Astronomy

Jan. 11, 2013 Rise Set
Actual Time 7:36 AM CST 5:14 PM CST
Civil Twilight 7:06 AM CST 5:43 PM CST
Nautical Twilight 6:33 AM CST 6:17 PM CST
Astronomical Twilight 6:01 AM CST 6:49 PM CST
Moon 7:10 AM CST (1/11) 5:32 PM CST (1/11)
Length of Visible Light 10h 37m
Length of Day
9h 37m
Waning Crescent, 0% of the Moon is Illuminated
Jan 11
Waning Crescent
Jan 11
New
Jan 18
First Quarter
Jan 26
Full
Feb 3
Last Quarter

Hourly Weather History & Observations

Time (CST) Temp. Dew Point Humidity Pressure Visibility Wind Dir Wind Speed Gust Speed Precip Events Conditions
12:15 AM 48.2 °F 48.2 °F 100% 29.73 in 3.0 mi South 3.5 mph - N/A   Overcast
12:35 AM 48.2 °F 48.2 °F 100% 29.74 in 4.0 mi South 4.6 mph - N/A   Overcast
12:55 AM 48.2 °F 48.2 °F 100% 29.74 in 4.0 mi South 3.5 mph - N/A   Overcast
1:15 AM 48.2 °F 48.2 °F 100% 29.74 in 4.0 mi South 4.6 mph - N/A   Overcast
1:35 AM 48.2 °F 48.2 °F 100% 29.75 in 4.0 mi South 4.6 mph - N/A   Overcast
1:55 AM 50.0 °F 50.0 °F 100% 29.75 in 4.0 mi South 6.9 mph - N/A   Overcast
2:15 AM 50.0 °F 50.0 °F 100% 29.74 in 4.0 mi South 5.8 mph - N/A   Overcast
2:35 AM 50.0 °F 50.0 °F 100% 29.73 in 2.0 mi SSE 3.5 mph - N/A   Overcast
2:55 AM 48.2 °F 48.2 °F 100% 29.73 in 2.0 mi Calm Calm - N/A   Overcast
3:15 AM 48.2 °F 48.2 °F 100% 29.73 in 1.5 mi SSE 3.5 mph - N/A   Overcast
3:35 AM 50.0 °F 50.0 °F 100% 29.73 in 2.0 mi SSE 6.9 mph - N/A   Mist
3:55 AM 50.0 °F 50.0 °F 100% 29.73 in 4.0 mi South 6.9 mph - N/A   Overcast
4:15 AM 50.0 °F 50.0 °F 100% 29.72 in 3.0 mi South 8.1 mph - N/A   Overcast
4:35 AM 50.0 °F 50.0 °F 100% 29.72 in 3.0 mi South 6.9 mph - N/A   Overcast
4:55 AM 50.0 °F 50.0 °F 100% 29.70 in 4.0 mi SSE 4.6 mph - N/A   Overcast
5:15 AM 50.0 °F 50.0 °F 100% 29.72 in 5.0 mi South 4.6 mph - N/A   Overcast
5:35 AM 50.0 °F 50.0 °F 100% 29.70 in 7.0 mi South 5.8 mph - N/A   Overcast
5:55 AM 50.0 °F 50.0 °F 100% 29.72 in 5.0 mi SSE 4.6 mph - N/A Rain Light Rain
6:15 AM 50.0 °F 50.0 °F 100% 29.70 in 5.0 mi SE 4.6 mph - N/A   Overcast
6:35 AM 50.0 °F 50.0 °F 100% 29.70 in 5.0 mi SSE 8.1 mph - N/A   Overcast
6:55 AM 50.0 °F 50.0 °F 100% 29.70 in 7.0 mi SSE 9.2 mph - N/A   Overcast
7:15 AM 50.0 °F 50.0 °F 100% 29.70 in 7.0 mi SE 8.1 mph - N/A   Overcast
7:35 AM 50.0 °F 50.0 °F 100% 29.69 in 7.0 mi SSE 10.4 mph - N/A   Overcast
7:55 AM 50.0 °F 50.0 °F 100% 29.69 in 10.0 mi SSE 9.2 mph - N/A   Overcast
8:15 AM 50.0 °F 50.0 °F 100% 29.69 in 10.0 mi SSE 11.5 mph - N/A   Overcast
8:35 AM 50.0 °F 48.2 °F 94% 29.69 in 10.0 mi SSE 12.7 mph - N/A   Overcast
8:55 AM 50.0 °F 46.4 °F 87% 29.67 in 10.0 mi SSE 11.5 mph 18.4 mph N/A   Mostly Cloudy
9:15 AM 50.0 °F 46.4 °F 87% 29.69 in 10.0 mi South 11.5 mph 20.7 mph N/A   Mostly Cloudy
9:35 AM 50.0 °F 46.4 °F 87% 29.69 in 10.0 mi South 11.5 mph 18.4 mph N/A   Mostly Cloudy
9:55 AM 50.0 °F 46.4 °F 87% 29.67 in 10.0 mi SSE 12.7 mph - N/A   Scattered Clouds
10:15 AM 51.8 °F 46.4 °F 82% 29.67 in 10.0 mi South 13.8 mph - N/A   Clear
10:35 AM 51.8 °F 46.4 °F 82% 29.67 in 10.0 mi South 12.7 mph 24.2 mph N/A   Clear
10:55 AM 51.8 °F 46.4 °F 82% 29.65 in 10.0 mi South 12.7 mph 19.6 mph N/A   Clear
11:15 AM 51.8 °F 46.4 °F 82% 29.63 in 10.0 mi South 11.5 mph 17.3 mph N/A   Clear
11:55 AM 53.6 °F 44.6 °F 72% 29.61 in 10.0 mi South 16.1 mph 25.3 mph N/A   Clear
12:15 PM 53.6 °F 44.6 °F 72% 29.62 in 10.0 mi South 12.7 mph 21.9 mph N/A   Unknown
12:35 PM 55.4 °F 46.4 °F 72% 29.61 in 10.0 mi South 11.5 mph 19.6 mph N/A   Unknown
12:55 PM 55.4 °F 46.4 °F 72% 29.60 in 10.0 mi South 10.4 mph 17.3 mph N/A   Clear
1:15 PM 59.0 °F 46.4 °F 63% 29.59 in 10.0 mi South 12.7 mph 23.0 mph N/A   Clear
1:35 PM 59.0 °F 44.6 °F 59% 29.59 in 10.0 mi South 18.4 mph 28.8 mph N/A   Clear
1:55 PM 59.0 °F 44.6 °F 59% 29.59 in 10.0 mi South 16.1 mph - N/A   Clear
2:15 PM 59.0 °F 44.6 °F 59% 29.59 in 10.0 mi South 9.2 mph - N/A   Clear
2:35 PM 59.0 °F 44.6 °F 59% 29.58 in 10.0 mi SE 9.2 mph - N/A   Clear
2:55 PM 59.0 °F 44.6 °F 59% 29.59 in 10.0 mi South 8.1 mph - N/A   Clear
3:15 PM 57.2 °F 46.4 °F 67% 29.58 in 10.0 mi SSE 5.8 mph - N/A   Clear
3:35 PM 57.2 °F 46.4 °F 67% 29.58 in 10.0 mi SSE 8.1 mph - N/A   Clear
3:55 PM 57.2 °F 46.4 °F 67% 29.58 in 10.0 mi South 8.1 mph - N/A   Clear
4:15 PM 59.0 °F 46.4 °F 63% 29.58 in 10.0 mi South 10.4 mph 16.1 mph N/A   Clear
4:35 PM 59.0 °F 46.4 °F 63% 29.58 in 10.0 mi South 17.3 mph 20.7 mph N/A   Clear
4:55 PM 59.0 °F 44.6 °F 59% 29.58 in 10.0 mi South 17.3 mph 26.5 mph N/A   Clear
5:15 PM 59.0 °F 44.6 °F 59% 29.58 in 10.0 mi South 11.5 mph 19.6 mph N/A   Clear
5:35 PM 59.0 °F 44.6 °F 59% 29.59 in 10.0 mi South 15.0 mph 18.4 mph N/A   Clear
5:55 PM 59.0 °F 44.6 °F 59% 29.60 in 10.0 mi South 15.0 mph 24.2 mph N/A   Clear
6:15 PM 59.0 °F 44.6 °F 59% 29.60 in 10.0 mi South 17.3 mph 25.3 mph N/A   Clear
6:35 PM 59.0 °F 44.6 °F 59% 29.60 in 10.0 mi South 13.8 mph 24.2 mph N/A   Clear
6:55 PM 59.0 °F 44.6 °F 59% 29.61 in 10.0 mi South 13.8 mph 18.4 mph N/A   Clear
7:15 PM 59.0 °F 44.6 °F 59% 29.61 in 10.0 mi South 11.5 mph 18.4 mph N/A   Clear
7:35 PM 59.0 °F 44.6 °F 59% 29.60 in 10.0 mi South 11.5 mph 16.1 mph N/A   Clear
7:55 PM 59.0 °F 44.6 °F 59% 29.62 in 10.0 mi South 10.4 mph 18.4 mph N/A   Clear
8:15 PM 59.0 °F 44.6 °F 59% 29.62 in 10.0 mi South 15.0 mph 18.4 mph N/A   Clear
8:35 PM 59.0 °F 44.6 °F 59% 29.62 in 10.0 mi South 12.7 mph 19.6 mph N/A   Clear
8:55 PM 59.0 °F 44.6 °F 59% 29.62 in 10.0 mi South 11.5 mph - N/A   Clear
9:15 PM 59.0 °F 44.6 °F 59% 29.63 in 10.0 mi South 11.5 mph 19.6 mph N/A   Clear
9:35 PM 59.0 °F 44.6 °F 59% 29.64 in 10.0 mi South 13.8 mph - N/A   Clear
9:55 PM 59.0 °F 44.6 °F 59% 29.64 in 10.0 mi SSW 12.7 mph 20.7 mph N/A   Clear
10:15 PM 59.0 °F 44.6 °F 59% 29.65 in 10.0 mi SSW 15.0 mph 23.0 mph N/A   Clear
10:35 PM 59.0 °F 44.6 °F 59% 29.66 in 10.0 mi SSW 12.7 mph 19.6 mph N/A   Scattered Clouds
10:55 PM 59.0 °F 44.6 °F 59% 29.66 in 10.0 mi SSW 13.8 mph 19.6 mph N/A   Mostly Cloudy
11:15 PM 59.0 °F 46.4 °F 63% 29.67 in 10.0 mi SSW 11.5 mph - N/A   Overcast
11:35 PM 60.8 °F 44.6 °F 55% 29.68 in 10.0 mi SW 15.0 mph 23.0 mph N/A   Overcast
11:55 PM 59.0 °F 42.8 °F 55% 29.70 in 10.0 mi SW 13.8 mph 24.2 mph N/A   Overcast